RH
72 71 71 70 70 70 69 68 68 68 67 67 67 66 65 65 65 64 63 63 63 63 63 63 63 63 63 63 63 63 65 67 69 72 75 76 76 77 78 79 80 81 81 82 82 82 82 82 82 82 81 81 80 79 78 78 78 77 77 77 77 78 80 83 85 87 89 90 90 90 89 88 86 85 86 86 87 90 94 94 94 93 91 88 86 86
72 72 72 71 71 71 71 70 70 70 70 70 69 69 69 68 68 68 67 67 67 67 67 67 67 67 66 66 66 67 68 70 72 75 77 78 79 79 80 81 82 82 82 82 83 83 83 84 84 83 83 82 81 80 79 78 78 77 77 77 77 78 79 81 83 84 86 87 88 89 89 89 88 88 86 85 87 91 96 97 98 99 98 93 88 83
73 74 73 72 72 72 72 72 72 72 71 71 71 71 71 71 71 72 72 72 71 71 70 70 70 70 70 70 70 70 72 74 76 77 80 81 81 82 82 83 83 83 83 84 84 84 84 84 84 84 84 83 82 81 81 80 79 78 77 77 78 78 79 80 82 84 85 87 89 91 92 93 94 93 90 90 91 93 95 95 96 97 96 93 89 85
75 76 75 74 73 73 73 73 73 73 72 72 72 72 73 73 74 74 74 73 73 72 72 72 72 72 73 73 73 74 75 76 78 80 82 82 83 83 83 83 83 83 84 84 84 84 84 84 84 85 84 83 83 82 82 82 82 81 80 80 80 81 82 83 86 89 91 92 94 95 96 96 97 96 95 94 93 92 90 90 91 92 93 91 89 87
76 76 76 75 74 74 73 73 73 73 73 74 74 75 75 75 75 75 75 74 74 74 74 75 75 75 76 76 76 76 77 78 79 81 83 83 84 85 85 85 84 84 84 84 84 84 84 84 84 85 84 84 84 84 84 84 84 84 84 84 85 85 85 87 90 93 95 95 96 96 96 96 95 95 95 94 93 91 90 89 89 90 90 88 87 86
78 77 77 77 77 76 75 75 75 75 76 76 76 76 76 76 76 76 76 76 76 76 77 77 77 78 78 79 79 78 79 79 80 81 83 83 84 85 86 86 85 84 83 83 83 83 83 84 84 84 83 83 83 83 84 84 84 85 85 85 85 85 85 87 89 91 93 93 93 93 93 93 93 93 93 93 92 91 90 89 88 86 85 84 83 83
80 79 79 79 78 78 77 77 77 77 77 77 77 77 77 77 77 78 78 78 78 78 79 79 79 80 80 80 80 80 80 79 80 80 81 81 82 82 83 83 83 83 82 82 82 82 82 82 83 83 83 83 83 83 82 82 82 82 81 81 81 82 83 84 85 87 88 89 90 91 91 91 92 93 93 93 92 91 89 87 84 81 80 79 79 80
83 82 81 80 80 80 79 78 78 78 78 78 78 78 78 78 78 78 78 78 78 78 79 79 80 80 81 80 80 80 80 79 79 79 79 79 79 79 79 80 80 81 81 82 82 82 82 83 83 83 84 84 84 83 82 81 81 81 80 80 81 81 82 83 85 86 87 89 90 90 90 91 92 94 93 93 91 89 85 82 80 78 77 77 78 79
86 84 82 81 81 80 79 78 77 77 77 78 79 79 79 78 78 77 77 77 77 78 78 79 80 80 80 80 80 80 80 80 80 79 79 79 79 78 79 79 80 81 82 82 83 83 83 83 83 84 84 84 84 84 84 83 83 83 83 83 83 84 84 85 85 86 87 88 89 89 90 90 90 91 91 89 87 85 81 79 77 77 77 77 78 79
87 86 84 82 81 81 81 81 79 78 79 80 81 81 81 81 80 79 79 78 78 79 79 80 80 81 81 81 81 80 80 80 80 80 81 81 81 81 81 82 82 82 83 84 84 84 84 85 84 84 84 84 84 84 84 84 84 85 85 85 85 84 85 85 85 84 84 85 85 85 86 86 86 86 86 84 82 80 78 77 77 77 78 78 79 80
87 85 85 84 83 83 83 83 83 83 84 85 86 86 86 86 86 85 84 82 81 81 81 81 81 81 82 81 81 81 81 81 81 81 81 81 81 82 82 82 83 83 83 83 84 84 84 84 84 84 84 84 84 83 83 83 84 84 84 83 83 84 84 84 84 83 83 83 83 83 82 82 82 82 81 79 78 77 77 77 77 77 78 79 79 80
86 85 85 84 84 84 84 85 85 86 87 89 91 92 90 89 88 89 89 87 85 83 82 82 82 82 82 82 82 82 82 82 82 82 82 81 81 81 81 81 81 80 80 80 80 80 80 80 81 81 81 81 81 81 81 81 81 82 82 83 83 84 84 84 84 84 84 83 83 82 82 81 81 80 79 78 77 77 77 77 78 78 78 79 80 82
86 85 86 86 86 86 86 86 86 86 87 89 90 91 89 87 86 88 90 90 88 85 84 84 84 83 83 83 83 84 84 84 83 83 82 82 82 81 81 81 81 80 80 79 79 78 77 77 77 77 78 78 78 77 77 78 79 80 80 81 82 82 83 84 84 85 85 85 84 83 82 82 81 81 80 79 79 79 79 80 81 81 81 83 84 85
89 88 89 89 89 87 86 87 88 88 86 85 85 85 83 83 84 86 88 89 88 87 86 86 85 85 84 84 84 84 84 85 84 84 84 83 82 82 82 82 81 81 80 80 79 78 77 77 77 77 75 75 74 73 73 73 74 75 76 77 79 80 82 83 84 85 85 85 85 85 83 82 82 82 81 81 81 82 82 83 83 84 85 87 87 88
91 91 91 90 89 87 85 85 86 86 84 84 83 83 83 84 85 86 88 88 88 87 87 88 88 87 85 84 84 84 84 85 85 86 85 84 82 82 82 83 82 82 81 81 80 79 77 78 78 77 75 74 73 72 72 73 73 74 75 77 79 81 82 83 84 85 86 86 86 85 83 83 83 83 83 83 83 83 83 84 84 85 87 88 88 88
93 93 93 92 90 88 86 85 86 86 86 85 85 85 87 88 88 88 88 89 89 89 90 91 90 88 84 82 81 82 82 84 85 86 86 85 83 81 82 83 83 82 81 81 81 79 78 79 78 78 76 75 74 74 74 75 76 77 78 80 81 83 84 85 86 86 87 87 86 85 83 83 84 84 84 84 84 84 83 84 85 85 86 86 86 87
96 96 95 94 93 91 89 88 88 89 88 88 88 88 89 90 90 90 90 90 90 90 91 91 91 88 83 77 76 76 77 80 82 84 85 85 83 82 82 84 84 83 82 81 81 80 79 79 79 78 77 76 75 76 76 78 78 80 82 83 85 85 86 87 87 88 88 88 86 84 84 85 85 85 85 85 84 84 84 84 84 85 85 86 86 86
93 93 93 94 94 93 92 93 93 93 92 93 93 93 92 92 93 93 93 92 92 92 92 91 90 88 85 78 75 73 75 76 79 81 83 84 83 82 83 84 84 84 83 83 82 81 81 80 80 79 78 77 77 78 79 80 81 83 85 86 86 87 87 88 88 88 88 87 85 85 86 86 86 85 85 85 85 84 84 84 84 84 84 85 87 87
92 92 95 97 98 98 97 97 96 96 95 95 94 95 96 95 95 95 96 95 94 94 93 92 90 87 84 80 78 76 77 77 79 81 84 85 84 83 83 85 85 85 85 84 83 82 82 81 80 79 79 79 80 80 81 82 84 85 86 86 87 88 88 89 88 88 88 86 85 86 86 86 86 86 87 87 85 83 84 83 84 84 85 87 88 89
97 97 99 100 100 99 98 96 95 95 94 94 96 97 99 98 98 98 98 96 95 94 93 93 91 88 84 81 79 78 79 80 82 85 87 87 86 85 85 86 87 87 87 85 84 83 82 82 81 80 79 80 80 81 82 83 85 86 86 87 88 88 88 88 88 89 88 88 86 86 86 86 86 86 86 86 84 82 82 82 83 84 85 86 87 87
100 100 99 99 99 98 95 93 92 93 93 96 98 100 100 99 99 98 97 96 96 95 94 92 90 87 83 82 81 80 80 81 84 87 90 89 88 86 86 87 88 88 88 86 85 84 83 82 81 80 79 80 80 81 82 83 85 86 86 87 88 88 89 89 89 88 88 89 87 86 86 86 86 86 87 85 83 81 82 82 82 83 85 85 86 86
100 100 99 99 99 99 96 96 95 95 97 99 100 100 100 99 98 97 96 95 95 95 94 92 89 86 83 83 82 82 82 83 85 89 92 91 88 86 85 86 87 88 88 87 85 84 83 83 82 80 80 80 81 82 83 84 85 86 87 88 88 89 89 90 90 89 89 89 88 86 86 87 87 86 86 85 83 82 83 83 83 84 85 86 87 88
100 100 99 98 98 99 99 99 99 99 100 100 100 100 100 100 99 98 96 96 95 95 94 92 90 89 88 88 88 87 87 87 90 93 96 94 90 85 82 84 85 86 87 85 84 84 83 83 82 81 81 81 81 82 83 84 85 86 87 88 89 89 89 90 90 90 89 89 88 87 86 86 86 86 87 85 83 82 82 82 83 84 85 86 88 91
100 100 100 100 100 99 100 100 100 100 100 100 100 100 100 100 100 100 99 98 98 98 98 98 97 95 93 92 92 93 92 93 95 99 100 97 91 85 82 82 84 85 85 84 83 83 83 82 82 82 81 81 81 81 82 83 84 85 86 88 89 89 89 90 90 89 89 89 88 87 86 86 86 85 86 85 83 82 82 82 83 84 86 87 89 90
100 100 100 100 99 99 99 99 99 99 98 98 98 99 100 100 100 100 100 100 100 100 100 100 99 97 93 92 93 94 93 95 98 100 100 97 93 88 84 84 84 84 84 83 82 82 82 82 81 81 81 80 80 80 80 81 82 84 85 86 87 88 89 89 89 88 89 89 89 87 86 85 84 84 84 84 83 82 82 82 83 84 85 85 86 87
98 98 98 98 97 97 97 97 96 93 92 91 91 93 94 97 99 100 100 100 100 100 100 100 98 94 91 90 91 91 89 92 96 99 100 98 94 90 86 85 84 84 84 83 82 81 81 81 81 80 80 79 79 79 79 80 81 82 83 84 86 87 88 89 89 89 89 89 89 88 86 85 84 84 85 84 84 83 82 82 82 82 82 83 85 86
91 92 93 95 95 95 94 93 90 87 86 86 84 83 83 90 96 99 98 99 100 100 100 99 96 93 90 89 88 86 84 88 93 97 100 99 97 92 87 85 84 84 84 83 82 81 81 81 80 80 79 78 78 78 78 79 80 81 82 83 84 86 87 88 89 89 88 88 88 88 86 85 85 85 85 84 83 82 81 81 81 82 82 83 85 87
86 88 92 94 94 93 90 88 87 86 85 85 82 81 81 87 93 96 95 98 99 100 100 98 95 92 90 88 85 84 83 86 90 93 97 99 98 93 88 86 85 85 84 83 81 79 79 78 78 78 77 77 77 77 77 78 79 80 80 81 82 83 86 87 88 89 88 88 87 87 87 86 85 84 83 83 81 80 79 80 81 82 82 84 86 86
93 93 95 94 92 89 87 85 82 81 83 83 82 81 82 85 90 95 97 99 99 99 98 97 96 94 93 91 88 87 87 88 89 91 95 99 97 94 89 89 88 86 84 82 79 77 76 75 75 75 76 76 76 76 77 77 77 78 78 78 78 79 80 83 85 87 88 88 88 87 87 87 86 84 83 82 80 80 80 81 82 82 82 84 85 85
99 98 96 92 89 85 83 81 78 76 78 81 81 80 78 76 80 87 93 96 97 97 95 94 95 96 97 96 94 93 91 91 91 92 96 98 97 93 91 90 88 86 83 80 79 77 73 71 71 71 72 73 74 75 75 75 75 75 74 74 73 73 73 74 76 79 80 82 82 82 81 83 84 85 85 83 81 80 81 81 81 82 83 84 85 87
96 94 90 86 83 81 79 77 75 74 74 75 74 72 68 68 71 77 84 89 92 93 91 90 91 92 95 95 95 95 94 93 93 95 98 98 95 92 90 88 85 82 79 78 79 78 73 70 67 66 68 69 70 71 72 72 72 71 71 70 70 69 68 68 68 69 69 69 69 69 69 71 76 82 86 85 84 83 83 82 81 82 83 85 87 90
86 83 81 79 78 77 76 76 75 74 73 71 69 67 65 66 68 72 78 84 88 91 91 91 90 90 92 91 91 91 91 89 89 92 95 95 92 89 86 84 81 78 75 75 76 76 74 71 68 65 67 68 69 70 70 70 70 69 69 69 68 68 67 67 67 66 65 65 64 64 64 65 68 72 77 81 81 81 83 83 83 83 84 85 87 90
77 76 75 75 75 75 76 76 76 75 74 73 71 69 67 66 67 68 72 78 85 91 95 95 95 93 92 91 89 87 86 85 85 86 89 90 90 88 85 82 79 77 75 75 75 76 75 73 71 70 71 72 73 73 72 72 71 70 69 68 68 68 68 68 67 67 67 66 66 67 67 67 66 66 67 69 69 69 72 73 77 82 85 84 86 88
73 74 74 75 76 77 77 78 78 78 77 76 74 72 70 69 68 68 70 75 81 88 95 97 98 97 95 92 89 86 85 84 85 87 90 92 93 93 89 87 85 82 80 78 77 77 77 78 78 77 76 76 76 76 76 75 75 73 72 71 70 70 70 70 70 69 69 69 69 69 69 68 67 65 64 63 63 63 63 64 71 80 87 85 85 87
74 76 78 79 80 81 80 80 80 80 80 79 78 76 75 73 72 73 74 76 81 86 93 96 97 98 98 96 93 89 86 87 89 92 92 95 97 98 97 96 95 93 91 88 85 84 83 84 85 85 84 81 79 77 76 77 77 76 76 75 74 73 73 72 72 72 72 72 71 70 69 68 67 65 64 64 63 63 63 66 74 84 89 87 87 87
79 81 83 83 84 84 84 84 84 84 83 82 81 79 78 77 77 78 79 81 84 87 91 94 96 97 98 98 97 96 94 94 93 90 86 88 92 96 97 96 97 98 99 97 95 93 91 91 91 91 90 86 82 78 75 76 76 77 77 77 76 75 74 74 74 74 73 73 72 70 69 68 67 66 65 64 64 65 65 69 74 78 77 81 85 87
85 86 87 86 86 86 86 86 86 86 86 85 84 82 81 81 82 83 84 85 86 87 90 92 94 96 97 97 98 98 97 97 94 91 87 89 93 96 96 96 97 98 99 99 98 97 96 94 93 91 89 86 82 77 73 75 76 77 78 77 76 75 74 74 74 74 73 73 71 70 69 68 67 67 66 65 65 66 66 67 68 68 69 71 74 77
89 89 89 88 87 87 88 88 89 89 88 87 86 85 84 85 86 88 89 88 88 89 90 93 94 96 96 97 97 97 97 96 94 92 90 92 95 97 98 98 98 98 98 98 98 98 97 94 91 88 84 80 77 75 73 75 76 77 78 77 76 75 74 74 74 73 73 72 71 70 69 68 68 67 67 67 67 67 67 66 66 67 68 69 69 69
90 90 89 88 88 88 90 91 91 90 89 87 86 85 86 88 90 92 93 92 92 92 93 94 95 96 96 96 96 97 97 96 95 93 92 94 95 97 97 98 98 98 98 98 98 98 97 94 90 86 83 79 76 74 74 76 77 78 79 79 78 77 75 74 74 73 73 72 71 70 69 69 68 68 68 68 68 68 67 67 67 68 69 70 69 68
90 89 88 88 88 90 92 92 91 90 87 85 84 84 86 90 92 94 94 94 94 94 95 95 96 96 96 96 96 96 96 95 94 93 92 93 95 97 97 97 98 98 98 98 98 98 97 94 91 87 84 81 79 77 76 77 78 80 82 82 81 79 76 74 74 74 73 72 71 71 70 70 69 69 69 69 68 68 68 68 68 69 70 71 71 71
88 86 86 88 89 91 91 90 88 85 83 83 84 86 88 92 94 95 95 95 95 95 95 95 95 95 95 95 95 95 95 94 93 92 90 90 91 93 96 97 97 98 98 98 98 98 98 96 93 91 88 86 83 82 81 81 81 83 85 85 83 79 76 75 75 74 74 73 72 71 71 71 70 70 70 69 68 68 68 69 70 70 71 72 72 74
87 86 87 89 90 90 88 85 83 82 82 85 89 92 93 95 96 96 95 95 95 95 94 94 94 94 93 94 93 92 92 90 89 88 87 87 88 90 93 95 96 97 96 96 97 98 97 97 95 93 91 89 87 86 86 86 87 88 89 87 84 81 78 77 76 76 75 74 73 73 72 72 71 71 70 69 69 69 69 70 71 71 72 72 72 73
86 86 86 88 88 88 87 86 86 87 89 92 95 95 94 93 93 93 94 94 93 93 92 92 92 92 91 89 88 88 87 86 85 85 85 85 85 87 90 93 96 96 95 94 96 98 97 97 96 95 93 92 92 91 90 92 93 93 92 89 86 84 83 80 78 76 76 75 75 74 73 73 72 71 71 70 70 70 70 71 71 72 73 73 73 72
84 86 87 89 90 91 91 91 92 94 95 96 95 93 89 87 87 88 91 92 92 92 92 92 91 91 90 87 85 84 83 83 83 83 83 84 85 86 86 86 88 91 95 94 96 98 97 97 96 95 95 96 96 96 94 94 94 94 92 90 88 87 85 82 79 77 76 76 76 75 74 73 72 72 71 71 72 72 72 71 72 72 73 73 72 71
87 90 92 93 93 94 94 94 95 95 94 92 89 86 83 83 84 86 89 91 92 92 91 91 91 90 88 85 83 82 82 82 83 84 84 84 83 83 82 81 81 84 92 95 97 98 98 97 96 95 96 98 98 98 97 96 95 94 93 91 89 88 86 84 81 80 79 79 78 77 76 74 73 73 73 73 73 73 73 73 73 73 73 73 72 71
93 94 94 94 94 93 92 91 90 88 87 84 83 83 83 84 85 88 90 92 93 93 92 92 93 92 90 86 84 83 83 83 83 83 83 83 83 83 83 82 82 83 87 93 97 98 98 98 98 98 98 98 98 98 98 97 95 94 94 93 92 91 90 88 86 84 83 83 82 81 79 78 77 77 76 76 75 75 75 74 74 74 74 73 72 70
94 94 93 92 91 89 86 85 84 84 84 84 85 86 86 87 88 90 92 93 94 94 93 94 94 94 93 91 88 86 85 84 83 82 82 83 84 85 84 83 82 82 85 91 96 98 98 98 98 98 98 98 98 98 97 96 96 95 95 94 94 94 93 91 89 87 87 87 87 86 84 83 82 81 80 79 78 77 76 75 75 75 75 74 73 71
95 94 93 91 89 87 86 85 85 87 89 90 90 90 89 89 90 92 94 94 95 96 96 96 96 94 92 89 87 86 86 87 86 86 85 85 85 85 83 82 81 83 86 92 96 98 98 98 98 97 97 98 97 97 96 96 96 95 95 95 95 95 94 92 90 89 90 90 90 89 88 87 86 84 82 82 81 80 79 77 76 76 76 75 74 72
94 93 92 90 89 89 89 88 89 91 92 92 91 90 90 90 91 93 95 95 96 96 96 96 94 92 89 87 86 86 87 88 88 87 86 85 84 84 84 84 85 86 90 94 96 98 98 98 98 98 97 98 98 97 95 95 94 94 95 95 95 95 94 92 91 91 91 91 91 91 90 88 87 85 84 84 84 83 81 79 78 77 76 76 74 72
92 92 91 91 91 91 91 92 93 93 93 93 92 92 92 93 93 93 94 95 95 94 94 93 92 90 89 88 87 87 88 88 88 88 87 86 86 87 88 87 88 89 92 95 96 97 98 98 98 98 98 98 98 98 97 96 95 95 95 95 95 94 94 93 92 92 92 92 91 91 90 89 88 87 86 86 86 85 84 82 80 78 76 75 74 72
93 93 93 93 94 94 94 94 94 94 94 93 93 93 94 93 92 92 92 92 92 91 90 90 90 91 90 89 89 89 89 90 90 89 89 88 88 89 90 90 91 93 95 94 95 95 97 97 96 95 96 96 97 98 98 98 97 97 97 96 95 95 95 94 93 93 92 92 91 91 90 90 89 88 88 88 88 87 86 85 82 79 76 75 73 71
Wind_Speed
23 24 24 24 24 25 25 25 25 27 28 28 28 29 29 29 29 29 30 31 31 31 32 32 33 33 34 34 34 33 32 31 30 30 30 30 30 30 30 30 30 29 29 29 29 28 28 27 27 27 27 27 27 27 27 27 27 27 27 27 26 26 27 28 28 28 27 26 26 25 25 25 25 26 26 27 27 27 27 28 28 27 26 26 27 27
22 22 22 22 23 24 24 24 24 25 27 28 28 28 28 29 29 30 30 30 30 30 30 30 31 31 32 33 33 32 31 30 30 29 29 29 29 29 29 29 29 29 29 29 28 28 28 27 27 27 26 26 26 26 27 27 27 26 26 26 26 26 27 28 28 28 27 27 26 26 25 25 26 26 27 27 26 26 26 27 27 26 24 24 25 26
22 22 22 21 22 22 23 24 24 25 26 28 28 28 28 29 29 29 29 29 28 28 28 29 29 30 31 31 32 31 30 29 29 29 29 29 29 29 29 29 29 29 29 28 28 28 28 27 27 27 26 26 26 26 26 26 26 26 26 26 26 27 27 28 28 28 27 27 26 26 25 25 25 26 26 26 25 25 25 26 26 25 24 24 24 25
22 21 21 21 21 22 23 24 25 25 26 27 28 28 29 29 29 29 28 28 28 28 28 29 29 29 30 30 30 30 30 29 28 28 29 29 29 29 29 29 28 28 28 28 28 28 27 27 27 26 26 26 26 26 26 26 26 26 26 26 26 26 27 27 27 26 26 26 25 25 25 24 24 24 24 24 24 25 25 26 26 26 25 25 25 25
22 21 21 21 21 22 23 24 25 25 25 26 27 27 28 27 27 28 28 28 28 28 28 28 28 28 28 29 29 30 29 29 28 28 28 29 29 29 29 28 28 28 28 28 27 27 27 26 26 26 25 25 25 25 25 25 25 25 25 25 25 26 26 27 26 25 24 24 24 24 24 23 23 23 23 23 24 24 25 25 25 25 25 25 26 26
22 22 22 21 21 22 23 24 24 24 24 24 25 26 26 26 26 27 27 27 28 28 28 28 28 28 28 29 29 30 29 29 29 29 29 29 29 28 28 28 28 27 27 27 26 26 26 25 25 25 24 24 24 24 24 23 23 23 23 24 24 25 26 26 25 25 24 24 24 23 23 23 23 23 23 23 23 23 24 24 24 25 25 26 26 27
23 23 22 22 22 23 23 23 24 24 23 23 23 24 25 25 25 26 26 27 27 27 28 28 28 28 28 29 29 29 29 29 29 29 29 28 28 27 27 27 26 26 26 25 25 25 24 24 24 24 23 23 23 23 23 23 23 23 23 23 24 24 25 25 25 25 24 24 24 23 23 23 22 22 22 22 22 23 23 23 24 24 25 26 27 27
24 24 23 22 22 23 23 23 23 23 22 21 21 22 23 24 24 25 26 26 26 27 27 27 27 28 28 28 28 28 28 28 28 28 28 28 27 27 26 26 25 25 25 25 24 24 24 23 23 23 23 23 23 23 23 22 22 22 23 23 23 24 24 24 24 24 24 23 23 23 22 22 22 21 21 21 22 22 22 23 23 24 25 26 27 27
24 24 24 23 23 22 23 23 24 24 23 22 21 21 22 23 24 25 25 25 25 25 25 25 26 26 27 27 27 26 27 27 27 27 27 27 27 27 26 26 25 25 24 24 24 24 24 23 23 23 23 23 23 23 23 22 22 22 23 23 23 23 23 24 24 24 23 23 23 22 22 22 22 21 21 21 21 21 22 22 23 24 25 26 26 27
24 24 25 25 24 23 22 23 25 25 24 23 22 22 22 23 23 24 24 24 25 24 23 23 24 25 26 26 26 25 25 26 26 26 26 26 26 26 26 25 25 25 25 25 25 25 24 24 24 24 23 23 23 22 22 22 22 22 22 22 22 22 22 22 23 23 23 23 22 22 22 22 22 22 21 21 21 21 22 22 23 24 25 26 26 27
24 25 24 24 24 23 23 23 24 24 23 23 23 23 23 22 22 21 21 23 24 24 23 22 23 23 24 25 25 24 24 24 25 26 26 26 26 26 26 25 25 25 25 25 25 25 24 24 23 23 23 22 22 21 21 21 21 21 20 21 21 21 21 21 21 21 21 22 22 22 22 22 21 21 21 21 21 22 22 23 23 24 25 26 26 27
23 23 23 22 22 22 22 23 23 22 21 20 20 20 21 22 22 21 20 21 23 24 23 22 22 22 23 23 23 23 23 23 24 25 26 26 26 26 25 25 25 25 25 25 25 25 25 24 23 23 22 22 22 21 21 21 20 20 20 19 19 19 19 19 19 19 20 20 20 20 20 20 20 20 21 21 21 22 22 23 23 24 25 26 26 27
23 22 21 21 21 21 21 21 21 20 19 18 17 17 18 20 21 20 20 21 22 23 22 22 22 23 23 23 22 22 22 23 24 25 26 26 26 25 25 25 25 25 25 25 26 26 26 25 24 23 23 23 23 22 22 21 21 21 20 20 20 19 19 19 19 19 19 19 19 19 19 20 20 20 20 21 21 22 22 22 23 24 25 26 26 27
22 21 20 19 20 20 20 20 19 18 19 19 20 20 21 21 20 20 19 21 22 23 22 21 22 23 24 23 22 22 22 22 23 25 26 26 26 25 24 24 25 26 26 26 27 27 27 26 25 25 25 24 24 24 24 23 23 23 22 22 21 21 20 20 19 19 19 19 19 19 19 19 20 20 20 21 21 21 22 22 23 24 24 25 26 27
19 18 17 16 17 19 20 19 19 19 21 22 22 22 22 22 21 20 19 20 21 22 21 20 21 23 24 23 22 21 21 21 22 23 25 26 26 25 24 24 25 26 27 27 28 28 27 26 25 26 26 26 25 25 25 24 24 23 23 22 21 21 20 20 20 19 19 19 19 19 19 19 20 20 20 20 21 21 22 23 23 24 24 25 25 26
17 16 14 14 16 18 19 19 19 20 22 23 23 22 21 20 21 21 20 20 20 19 18 17 17 18 22 23 21 19 19 19 21 22 23 25 25 25 23 23 24 26 27 27 27 28 27 27 26 27 27 27 26 26 25 24 23 23 22 22 21 21 20 20 20 19 19 19 19 19 19 20 20 20 20 20 21 22 23 23 24 24 24 25 25 25
16 15 15 14 15 17 19 20 20 20 21 21 21 21 21 21 21 21 20 19 18 17 15 13 8 6 12 19 20 17 15 16 17 19 21 23 25 24 23 22 23 25 26 27 27 27 27 27 27 27 28 28 27 26 25 24 23 22 22 21 21 20 20 20 20 20 19 19 19 19 20 20 20 20 20 21 22 23 23 24 24 24 24 25 25 25
18 18 17 16 15 16 17 18 18 19 20 20 20 21 21 22 21 21 20 19 18 16 14 14 10 6 5 12 17 17 14 14 15 17 19 22 24 24 22 21 23 25 27 27 27 27 27 27 27 28 28 28 27 26 24 23 22 22 21 21 21 21 20 20 20 20 20 20 20 20 20 20 20 20 20 21 22 23 23 23 24 24 24 25 25 25
21 21 18 15 14 15 15 16 17 18 19 19 20 20 20 21 21 20 20 19 18 17 16 14 14 14 14 16 20 20 17 16 16 17 18 21 23 24 22 21 22 24 27 28 28 27 26 27 28 28 28 28 27 25 24 23 22 22 22 21 21 21 21 21 20 20 20 20 20 20 20 20 20 20 20 21 22 23 23 23 24 24 24 24 24 25
20 19 16 14 14 15 16 17 18 19 19 20 21 21 20 20 20 19 19 19 20 20 19 17 17 18 20 22 24 24 21 19 18 18 18 21 23 24 23 21 21 24 26 28 28 27 26 27 28 28 28 28 27 26 24 23 23 22 22 22 22 21 21 21 21 20 20 20 20 20 20 20 20 20 20 20 22 23 23 23 23 24 24 24 24 24
18 16 15 15 15 16 17 19 20 21 23 23 23 21 20 19 19 19 19 19 20 20 20 19 20 22 23 24 25 25 22 20 18 17 17 19 22 23 22 21 21 23 25 27 27 26 25 26 27 28 28 28 27 26 24 23 23 22 22 22 22 22 21 21 21 20 20 20 19 19 19 19 19 19 20 20 22 22 22 23 23 23 23 23 24 24
20 18 19 19 19 19 20 22 24 26 26 26 24 22 21 20 19 19 20 20 20 21 21 22 23 25 25 25 26 26 24 22 21 19 16 15 19 23 22 20 19 21 24 26 26 25 25 25 27 28 28 27 26 25 24 23 23 22 22 22 22 22 22 21 21 20 20 20 19 19 19 19 19 19 19 20 21 22 22 22 22 23 23 23 23 24
24 23 23 22 22 22 23 24 25 26 27 26 25 24 23 23 23 23 23 23 23 23 24 25 26 26 26 26 27 27 26 24 23 21 17 10 14 21 21 19 18 20 22 24 24 23 24 25 26 27 27 27 26 25 24 23 23 22 22 22 22 22 21 21 21 20 20 19 19 19 19 19 19 19 19 20 21 21 21 21 22 22 22 23 23 23
26 25 24 23 22 22 23 23 23 23 23 23 23 24 25 26 27 27 27 26 26 25 25 25 24 25 25 26 26 26 26 25 23 21 17 13 15 19 21 19 18 19 22 23 23 22 23 24 26 26 26 26 25 25 24 23 23 22 22 22 22 22 21 21 21 20 20 19 19 19 18 18 18 18 19 19 20 20 21 21 21 21 21 22 22 22
24 23 22 21 21 22 21 21 21 21 21 22 23 24 25 25 25 26 26 26 26 24 23 22 20 19 21 22 22 22 24 23 22 20 17 13 15 19 20 19 18 19 21 22 22 22 22 24 25 26 26 26 25 25 24 24 23 23 22 22 22 22 21 21 20 20 19 19 19 18 18 18 18 18 18 19 19 20 20 20 20 20 21 21 21 21
21 19 19 20 21 22 22 22 22 22 22 23 24 25 25 25 25 24 22 20 19 19 18 15 13 14 17 18 17 18 20 20 20 20 18 14 14 16 19 19 18 18 20 21 21 21 21 23 24 25 25 25 25 25 24 24 23 23 22 22 22 22 21 21 20 19 19 18 18 18 17 17 17 17 18 18 18 18 19 19 19 19 20 20 20 20
21 20 20 20 21 21 21 21 21 22 22 22 22 23 24 23 22 20 17 16 15 14 12 8 6 9 13 13 15 17 19 19 19 20 20 17 14 15 18 19 18 18 18 19 20 20 21 22 23 23 23 24 25 25 25 24 24 23 23 22 22 22 21 20 20 19 18 18 18 17 17 17 17 17 17 17 17 17 17 17 18 18 18 18 19 20
21 19 19 19 20 20 20 21 21 21 22 22 22 22 21 20 18 16 15 16 16 16 13 8 5 5 6 8 13 17 19 19 19 20 21 18 15 14 17 18 17 16 16 17 18 19 20 21 22 23 23 24 24 25 25 25 24 23 23 22 22 21 20 20 19 18 18 17 17 17 16 16 16 16 16 16 16 16 16 16 17 17 17 18 19 20
19 17 17 18 19 21 21 22 22 22 21 21 20 19 18 17 16 15 15 16 16 15 13 11 9 7 7 11 14 16 17 19 20 21 20 17 14 15 17 15 15 14 14 14 15 17 19 20 20 21 22 22 23 23 24 23 23 22 22 21 21 20 19 18 18 17 17 17 16 16 16 16 15 15 15 15 15 15 15 15 15 16 17 18 19 20
16 15 16 19 21 22 22 22 22 21 20 20 19 18 17 17 16 16 16 16 14 12 12 12 11 11 10 10 9 8 10 14 17 19 19 15 12 12 13 13 13 14 13 10 8 9 13 17 18 18 19 19 19 20 20 20 20 20 19 19 18 18 17 17 16 16 16 16 16 16 16 15 15 15 14 14 14 14 14 14 14 15 16 17 18 19
16 17 19 21 23 23 22 22 21 20 20 19 18 18 18 18 18 17 17 16 14 13 12 12 12 12 11 6 3 1 2 6 8 10 12 11 10 10 11 11 12 14 13 10 4 1 6 11 14 15 15 15 16 16 16 17 17 17 16 16 16 16 15 14 14 15 15 15 15 15 15 15 14 14 14 13 13 13 13 13 13 14 15 15 16 17
20 21 22 23 24 23 23 22 21 20 20 20 19 19 19 18 18 18 18 17 16 15 14 14 13 13 12 9 6 5 4 8 9 9 9 9 10 12 12 12 13 14 15 14 10 6 4 4 10 14 14 14 14 15 15 15 15 15 14 15 15 15 14 13 13 14 14 14 14 14 14 14 14 14 13 13 12 12 12 12 13 13 14 15 16 17
22 22 23 23 24 23 23 22 22 21 21 20 20 19 19 19 19 19 19 18 18 17 16 15 14 13 13 13 12 12 13 15 15 14 13 13 13 14 14 14 15 15 16 16 17 15 11 10 13 16 17 16 15 15 15 15 15 15 14 15 15 15 14 14 14 14 14 14 14 14 14 14 13 13 12 12 12 12 12 12 12 12 13 14 16 17
23 23 23 23 23 23 23 23 22 22 21 21 20 20 20 20 20 20 20 20 19 19 18 16 15 14 14 13 14 15 16 16 16 14 14 15 14 13 14 15 15 16 16 16 17 17 16 17 17 17 16 16 16 15 15 16 16 16 16 16 16 16 16 15 15 15 15 15 15 14 14 13 13 12 12 12 12 12 12 12 12 12 12 13 15 17
23 22 22 22 22 23 23 23 23 22 22 21 21 20 20 21 21 21 21 21 21 20 19 18 18 17 16 14 14 14 15 15 14 14 15 16 16 15 14 13 13 13 13 13 13 13 13 15 16 15 13 13 14 15 15 16 16 17 17 18 18 18 17 17 17 16 16 15 15 14 13 12 12 11 11 11 11 11 12 12 12 12 12 13 14 15
22 21 21 21 21 22 22 23 22 22 22 21 21 21 21 21 22 22 22 22 21 21 20 20 20 19 19 18 17 17 18 18 19 19 19 20 19 18 16 15 14 13 11 11 11 9 8 9 11 12 11 10 10 12 15 15 16 16 17 18 18 18 18 17 17 16 16 15 15 14 13 12 11 11 11 11 11 12 12 12 12 12 13 13 13 14
19 19 20 20 20 20 21 21 22 21 21 22 22 22 22 23 23 23 23 22 21 21 21 21 21 20 20 20 21 21 22 22 23 23 22 22 22 20 18 18 17 15 14 12 11 10 9 7 7 8 9 9 9 10 13 14 15 16 17 18 18 17 17 17 16 16 16 15 15 14 13 12 11 11 11 11 11 12 12 12 12 12 13 13 13 13
18 18 19 19 19 20 20 21 21 21 21 21 22 23 23 24 24 23 23 22 21 21 21 20 20 20 20 21 21 22 23 23 24 24 23 23 22 22 20 19 19 18 17 16 15 14 12 7 5 5 5 9 12 14 15 14 14 16 17 17 17 17 16 16 16 16 16 15 15 14 13 12 11 11 11 11 11 11 11 11 11 11 12 13 13 14
18 18 19 19 19 19 19 20 20 21 22 23 23 24 24 24 24 23 22 22 21 20 20 20 20 20 20 21 21 22 22 22 23 23 23 22 22 22 21 20 19 19 19 18 18 17 16 12 9 6 4 8 12 16 17 16 16 16 16 16 16 17 17 16 16 16 16 16 15 14 13 12 11 11 11 11 11 11 11 11 11 11 12 13 14 15
17 17 18 18 18 18 19 19 21 22 23 24 24 24 23 23 23 22 22 21 20 20 19 19 19 20 20 21 21 21 21 22 22 22 21 21 21 21 21 21 20 20 19 19 19 19 18 17 16 16 15 13 13 14 15 16 17 16 15 14 14 16 17 17 17 16 16 15 15 14 13 12 11 11 11 10 10 10 10 10 11 11 12 13 14 16
16 16 17 17 17 18 19 20 22 23 23 23 23 23 22 22 21 21 20 20 19 19 19 19 19 19 19 19 19 20 20 20 20 20 20 20 20 20 21 21 21 21 20 20 20 20 19 19 19 18 18 18 17 17 17 17 17 16 14 13 13 14 16 16 16 16 16 15 14 13 12 12 11 11 10 10 10 9 9 10 11 12 12 12 13 14
15 16 17 17 19 20 21 22 22 22 22 22 21 21 21 20 19 18 18 18 18 18 18 18 18 18 18 18 18 18 18 19 19 19 19 19 19 19 20 21 22 22 22 21 21 20 20 19 19 18 18 18 18 17 17 17 17 16 14 14 14 14 13 15 15 15 15 15 14 13 12 12 11 11 10 10 9 9 9 10 11 12 12 13 13 13
16 17 18 19 20 21 21 21 21 21 20 20 19 19 19 19 18 18 18 17 17 17 18 17 17 17 17 17 18 19 19 19 19 19 18 18 18 18 19 20 21 22 22 21 19 18 18 18 19 19 20 20 19 18 16 15 15 15 14 14 14 11 8 11 13 14 14 14 13 13 12 12 11 11 10 10 9 10 10 11 11 12 12 13 13 12
18 18 19 20 20 20 19 19 19 18 18 17 17 17 18 19 20 19 18 18 17 18 17 17 17 16 16 16 18 19 19 19 19 18 18 17 17 17 18 19 19 20 22 21 19 17 17 17 18 20 21 21 19 18 15 13 12 13 13 15 15 14 11 10 11 12 12 12 12 12 12 11 11 10 10 10 10 11 11 11 12 12 12 12 12 12
18 18 18 18 17 17 17 17 16 17 17 17 17 18 19 20 20 20 19 18 18 18 18 18 17 15 14 15 16 17 18 19 19 19 18 18 18 18 18 18 18 19 20 20 20 19 17 17 17 18 19 19 17 16 14 12 11 11 13 15 16 17 17 14 12 11 11 11 11 11 11 10 10 10 10 11 11 11 12 12 12 12 12 11 11 11
17 17 16 16 16 15 15 15 16 17 17 17 18 19 20 20 21 21 20 20 19 19 19 18 16 13 12 14 15 16 17 17 18 19 20 20 19 18 18 17 18 18 19 19 20 20 20 19 18 17 16 14 14 14 13 12 11 11 12 14 15 16 16 16 14 13 12 12 11 11 10 10 10 11 11 11 12 12 12 12 12 12 11 11 10 10
15 15 15 15 15 15 16 16 17 17 17 18 18 19 19 20 20 20 20 19 19 18 17 16 14 13 12 13 14 15 15 16 18 19 19 20 19 19 18 18 18 17 18 18 19 19 20 21 21 18 15 11 9 10 12 13 13 12 12 13 13 14 15 15 15 15 14 13 12 11 11 11 10 10 11 11 12 12 12 11 11 10 10 10 10 10
13 14 14 15 15 16 16 17 17 17 17 17 17 18 18 19 19 18 18 17 17 16 14 13 12 12 13 14 15 15 15 15 16 17 18 19 20 20 19 19 18 17 16 16 17 18 18 19 20 20 17 13 10 9 10 13 14 14 13 13 12 13 14 15 15 14 14 13 12 12 11 11 10 10 10 10 11 11 12 11 10 9 9 9 10 10
14 14 15 15 15 15 15 16 16 16 16 16 16 17 18 18 18 16 16 16 15 14 13 12 12 12 13 14 15 16 16 16 16 17 18 19 20 20 19 18 16 15 15 15 15 16 17 17 18 19 19 17 13 11 10 11 13 13 13 13 12 13 13 13 13 13 12 11 11 11 10 10 10 10 9 9 10 11 11 11 11 9 9 9 9 9
15 15 15 15 15 15 15 15 15 15 15 15 16 16 17 17 16 16 16 16 15 14 13 13 13 13 13 14 15 16 16 16 17 18 19 19 19 18 17 16 15 14 13 13 12 12 12 12 13 15 16 16 15 13 11 10 10 11 11 12 12 12 12 12 12 11 10 9 9 9 9 9 9 9 9 8 9 9 11 11 11 10 8 8 8 8
14 15 14 14 14 14 14 15 14 14 15 15 15 15 15 15 15 16 16 16 15 15 15 14 14 13 13 14 15 15 15 15 16 17 18 18 18 17 16 15 14 12 10 8 6 5 4 3 5 7 10 12 13 13 13 11 10 9 9 11 12 12 11 11 10 9 8 8 7 7 8 8 8 8 8 8 7 7 8 10 10 10 8 7 7 7
Wind_Direction
288 290 292 293 293 292 291 291 291 291 291 291 290 290 290 290 290 289 289 289 288 288 288 287 287 287 287 287 288 287 287 286 285 284 284 284 284 284 285 285 285 285 285 285 285 285 284 284 284 283 283 282 281 280 280 279 279 278 278 277 277 276 274 273 272 272 272 272 272 272 273 273 274 275 275 275 276 277 279 279 278 277 275 275 277 280
290 291 292 292 291 290 289 289 288 288 288 289 289 289 290 291 291 291 290 289 288 288 287 287 287 287 287 288 288 287 286 285 285 284 283 283 284 284 284 284 285 285 285 285 285 285 285 284 284 284 283 282 281 280 279 279 278 277 277 277 276 275 273 272 272 272 273 273 273 272 272 272 273 273 274 274 275 277 280 280 281 281 279 277 277 278
293 292 291 291 290 288 288 288 288 286 286 286 287 288 288 289 289 289 289 288 288 287 286 286 286 286 286 286 286 285 284 283 283 283 282 282 283 283 284 284 284 284 285 285 285 285 285 285 284 284 283 283 281 280 279 278 277 276 275 275 274 274 273 272 272 272 272 272 272 271 271 271 271 272 272 274 275 277 278 280 282 284 284 282 281 280
289 289 289 291 289 287 286 287 287 286 285 285 285 286 287 286 286 286 286 286 287 286 286 286 285 285 284 284 284 284 283 283 282 282 282 283 283 284 284 284 284 285 285 285 285 285 285 285 285 285 284 283 282 281 280 279 278 276 274 273 273 273 272 271 272 272 272 272 272 271 271 272 272 272 273 274 275 275 275 277 279 281 283 282 282 281
285 285 286 288 287 286 286 286 286 286 285 285 285 285 285 284 284 284 285 286 286 286 286 286 285 284 283 283 283 284 284 283 283 283 283 283 284 284 284 284 285 285 285 285 285 285 285 285 285 285 285 285 284 284 283 282 281 280 278 277 275 273 272 272 272 273 274 274 274 274 274 275 275 275 276 276 275 275 275 275 277 279 280 281 281 280
282 282 283 283 283 283 285 285 285 285 285 285 285 285 284 283 283 283 284 284 285 285 285 285 285 284 283 283 283 284 284 284 284 284 284 284 284 284 284 285 285 285 285 285 285 285 285 285 285 285 285 285 285 285 285 285 284 283 283 282 279 277 275 274 275 275 276 276 276 277 277 277 277 277 277 277 276 275 275 276 277 278 279 280 280 280
280 281 281 281 280 280 281 282 283 283 283 283 284 284 284 283 282 282 282 283 284 284 285 285 285 284 283 283 283 283 284 285 285 285 285 285 284 285 285 285 285 285 286 286 286 286 285 285 285 285 285 284 284 284 284 283 283 282 282 281 280 278 277 277 277 277 277 277 277 278 278 277 277 277 277 276 276 275 275 277 277 278 279 279 280 280
279 279 279 279 279 280 279 279 279 280 279 279 280 281 282 283 283 282 283 283 283 283 284 284 284 284 283 283 283 283 284 284 285 286 286 286 286 285 285 285 285 285 286 286 285 286 285 285 285 284 284 284 284 283 283 281 281 280 279 278 278 277 277 277 277 277 277 277 277 277 277 276 277 277 276 276 276 276 276 277 278 278 279 279 280 280
275 277 277 277 276 278 279 279 278 278 277 275 275 276 279 281 283 284 285 284 283 282 282 282 283 283 283 282 283 283 283 283 284 284 285 286 286 286 286 286 286 286 285 285 285 285 285 285 284 284 284 284 284 283 283 282 281 281 280 279 278 277 277 277 277 277 276 277 277 277 277 276 276 276 276 276 276 276 277 277 278 279 279 280 280 281
270 273 275 276 274 274 275 276 277 277 275 273 271 270 272 275 279 282 284 283 282 281 280 279 280 281 282 282 282 282 283 283 282 282 282 282 283 284 284 284 284 284 284 284 284 284 284 284 284 284 283 283 283 283 283 282 282 282 282 281 280 280 280 279 278 278 277 277 277 277 276 276 276 276 276 276 276 277 277 278 278 279 279 279 280 280
269 270 272 273 273 272 270 271 273 275 274 271 269 267 267 267 269 274 277 279 280 281 280 278 277 277 279 281 282 282 283 283 283 283 282 282 281 282 282 282 282 282 282 282 282 282 282 282 282 283 283 283 282 281 281 281 281 282 282 282 281 281 282 281 280 280 278 277 277 276 276 276 276 276 276 276 276 277 277 278 278 279 279 279 279 280
268 269 269 271 272 271 270 270 271 273 273 271 268 266 265 264 264 264 266 271 275 278 279 279 277 276 276 278 280 282 282 282 282 283 284 283 283 283 282 282 282 281 281 281 281 280 280 280 281 281 281 281 280 280 280 279 279 280 280 280 281 281 281 281 280 280 279 277 277 277 276 276 276 276 275 276 276 277 277 278 278 278 279 279 279 279
265 266 267 268 268 269 270 271 273 273 271 268 265 264 265 267 266 263 261 264 269 273 277 278 278 277 276 276 276 278 279 280 281 282 282 283 283 282 282 282 282 282 282 281 281 281 281 281 281 281 281 281 281 281 281 281 280 280 280 280 280 280 280 280 279 279 278 277 277 276 275 275 275 275 275 276 276 276 277 277 278 279 279 279 279 279
263 264 264 265 265 266 267 268 269 269 269 267 265 266 268 270 269 266 264 264 267 270 273 275 276 277 278 276 275 274 275 276 278 279 280 280 280 280 280 280 280 280 281 280 280 281 282 282 282 282 282 283 283 284 284 284 284 283 283 282 282 281 281 280 279 278 278 277 276 276 275 275 275 275 275 276 276 277 277 278 279 280 280 280 280 280
262 262 262 261 262 263 265 266 266 266 268 268 268 269 270 270 268 266 265 265 268 270 271 272 273 275 277 277 275 272 271 271 272 274 276 277 278 278 277 277 278 279 279 278 279 280 282 282 281 282 283 284 285 285 286 286 286 286 285 284 283 282 281 280 279 278 277 277 276 276 275 275 275 275 275 276 276 277 279 280 281 281 281 281 281 281
260 259 258 258 260 261 263 265 265 266 268 270 270 270 269 267 266 265 264 264 266 269 269 269 272 276 279 279 277 273 268 265 265 267 270 273 276 277 275 274 274 276 277 277 278 280 282 282 282 283 284 285 286 287 287 286 285 284 284 283 282 281 280 279 279 278 277 277 276 276 275 275 275 275 275 276 278 279 280 281 282 282 282 282 282 282
263 260 259 259 260 263 265 267 267 267 269 271 271 269 267 265 264 264 263 263 264 266 265 264 265 275 281 283 282 277 269 262 260 262 266 269 273 274 273 270 270 271 274 275 276 277 280 281 282 283 284 285 286 286 286 285 284 283 282 281 280 279 278 277 277 276 276 276 276 276 275 275 275 276 276 277 279 280 281 282 282 283 283 282 283 282
271 268 267 265 266 268 271 272 271 271 272 272 272 270 268 266 264 262 261 261 261 260 260 260 260 262 273 280 281 279 272 264 261 262 265 267 270 272 272 269 267 269 271 273 274 276 278 279 280 282 282 283 284 284 284 283 282 280 279 278 277 277 276 276 276 276 276 276 276 276 275 276 276 277 277 278 279 280 281 281 282 283 283 283 283 283
270 269 268 269 272 276 279 278 277 276 275 275 274 273 270 267 264 262 259 258 256 256 257 258 260 262 266 270 274 275 273 267 262 261 263 266 269 270 270 267 265 266 268 269 272 274 276 278 280 281 281 281 281 281 280 279 279 278 277 277 276 275 275 275 275 275 275 275 276 276 276 276 277 277 278 279 279 280 281 281 282 282 283 283 284 284
267 266 266 272 280 285 285 283 281 279 278 277 276 273 269 267 264 261 258 257 256 255 255 256 258 261 264 268 272 273 272 266 260 257 259 263 267 268 267 263 261 262 264 267 270 273 275 277 279 280 280 280 279 279 278 277 277 277 276 276 276 275 274 275 275 275 275 275 275 276 276 277 277 278 279 279 279 280 280 281 282 282 283 284 285 286
269 269 272 278 282 284 284 284 282 281 281 278 275 271 267 266 264 261 258 256 256 255 255 255 257 260 264 267 270 271 270 262 254 251 255 260 264 266 265 261 259 259 262 265 269 271 273 275 277 279 280 280 279 279 278 277 276 276 275 275 275 274 274 274 274 274 274 275 275 276 276 277 277 278 279 279 279 280 280 281 282 283 284 285 286 286
273 274 277 277 276 275 277 279 281 282 280 276 272 269 267 265 263 260 259 257 255 253 252 253 257 261 264 265 267 269 267 259 250 246 251 257 261 263 264 260 257 256 259 264 267 270 272 274 276 278 279 279 279 278 277 276 276 275 275 274 274 274 274 274 274 274 274 274 275 275 276 277 277 278 279 279 279 279 280 281 282 283 285 285 286 287
271 271 273 273 272 272 274 277 280 282 281 276 271 268 266 264 263 261 260 258 255 254 254 256 259 262 263 264 265 266 264 257 250 245 245 247 256 260 263 260 256 255 257 262 267 270 272 273 275 276 278 278 278 277 276 275 275 274 274 273 273 273 273 273 274 274 274 274 275 275 276 277 278 279 280 280 280 280 281 281 282 284 285 286 288 290
270 268 268 269 272 275 277 279 283 286 288 286 283 280 277 273 270 268 266 263 260 258 258 258 260 261 263 264 265 264 262 257 250 243 239 242 252 258 261 259 257 256 259 263 267 270 272 273 274 276 277 277 277 277 276 275 274 273 273 272 272 272 273 273 273 274 274 274 274 275 276 277 278 279 280 280 280 280 281 282 283 285 286 288 290 292
274 272 273 277 281 283 285 288 293 298 301 303 304 304 301 297 293 288 281 272 265 261 260 260 260 260 263 265 265 264 263 258 250 241 237 244 253 257 259 258 256 257 261 265 268 271 272 273 274 275 276 277 277 277 276 275 274 273 272 272 272 272 272 272 272 273 273 273 273 274 276 277 278 279 280 280 280 280 281 282 284 286 288 290 292 293
287 287 290 291 291 292 294 298 303 305 306 308 309 311 313 314 313 309 302 288 275 268 264 262 262 265 268 269 267 266 265 260 251 241 236 243 253 258 259 257 254 255 260 265 269 270 271 272 273 275 276 277 278 278 277 276 274 273 272 272 271 271 271 271 271 271 272 272 273 274 275 276 278 279 280 280 281 282 283 284 286 287 288 291 292 293
293 292 291 290 291 293 296 300 302 303 303 304 305 307 310 312 314 313 309 306 302 296 286 278 274 275 275 272 269 267 265 259 251 242 238 239 248 256 256 254 252 253 258 264 268 270 271 272 273 275 276 277 278 279 278 276 275 273 272 271 271 271 270 270 270 270 271 272 272 273 274 276 277 279 280 282 283 284 285 286 287 288 289 291 293 293
288 286 286 286 288 291 295 297 298 300 301 303 305 307 308 310 310 307 305 311 317 317 309 301 290 286 281 276 272 269 265 258 250 244 239 236 240 250 251 250 249 250 256 264 270 272 272 272 273 274 275 276 277 277 277 276 275 273 272 272 271 270 270 270 269 269 270 270 271 272 273 274 276 278 280 282 283 284 285 286 288 289 289 291 293 295
284 283 283 286 288 291 294 296 298 300 301 303 305 307 309 309 307 303 302 308 314 316 311 306 301 297 293 286 281 274 266 258 252 246 239 233 236 244 246 246 247 249 254 266 274 277 275 274 273 274 274 274 275 275 276 276 275 274 273 272 271 270 269 268 268 268 267 268 269 270 271 273 275 277 280 281 282 283 285 287 289 290 290 292 294 297
289 288 290 291 293 295 298 299 301 302 302 302 303 305 306 307 305 303 303 308 311 311 308 308 308 307 305 299 290 278 269 262 257 250 238 231 235 243 245 245 246 248 251 262 274 281 279 279 277 275 273 272 272 272 273 274 274 274 273 272 271 269 267 266 265 265 265 265 265 266 268 270 273 276 279 281 282 283 285 288 290 292 294 296 297 299
303 303 301 299 300 301 303 304 304 304 303 302 301 302 304 305 305 305 304 305 306 305 304 304 305 306 309 312 314 306 295 295 284 265 245 234 239 252 252 252 251 251 251 252 254 297 284 284 282 279 274 271 269 269 270 271 272 272 271 269 267 266 264 263 263 262 261 261 262 263 266 269 272 275 278 281 282 284 287 289 292 294 296 299 301 301
307 305 304 303 304 305 306 306 306 305 304 302 301 301 303 304 305 304 303 302 301 300 298 297 296 296 297 292 288 286 288 302 306 301 283 270 269 270 268 264 262 261 258 254 251 256 274 283 281 278 273 270 269 269 269 269 269 267 265 264 263 262 262 262 261 261 261 261 262 264 268 271 273 276 278 280 281 284 287 290 293 295 297 300 301 301
308 306 305 305 306 307 307 307 307 306 304 303 302 302 302 303 303 303 302 301 299 297 294 292 290 289 288 284 281 277 277 280 285 288 288 284 280 276 272 268 267 267 266 261 256 255 258 261 268 271 269 267 266 268 268 267 266 264 261 260 260 261 263 263 263 262 263 264 267 269 272 274 276 277 278 279 281 284 288 291 294 296 297 299 301 302
308 308 307 307 307 308 308 308 308 307 305 304 303 303 303 303 303 303 302 301 298 295 292 287 284 283 284 283 281 279 278 278 280 282 282 284 281 277 274 269 266 265 266 264 260 257 256 255 257 261 262 262 261 262 264 265 264 262 260 258 259 261 265 266 265 265 266 268 270 272 274 275 276 277 278 280 283 287 291 295 298 298 297 299 301 304
310 309 308 308 308 308 308 308 308 307 305 304 303 304 304 304 304 304 303 301 299 295 291 286 282 278 277 277 278 279 280 281 283 284 284 288 291 291 288 281 275 270 266 263 259 256 254 252 249 249 253 258 260 260 261 262 262 260 258 257 258 261 265 267 267 268 269 269 271 272 273 273 274 275 278 281 285 290 295 299 300 298 296 298 301 304
309 307 306 306 307 306 306 306 306 306 305 304 304 304 304 304 305 305 305 304 302 298 294 289 284 280 275 273 272 274 278 281 284 286 287 288 289 289 289 287 285 283 278 270 264 260 258 256 250 246 246 252 260 264 265 263 260 256 254 253 255 258 262 265 266 266 267 267 268 269 270 271 272 274 278 281 286 291 296 299 299 298 298 300 302 303
306 305 304 305 305 305 304 304 304 304 303 303 304 304 304 305 306 306 307 307 306 303 300 296 291 286 281 277 275 275 278 282 286 288 289 287 285 281 278 277 278 278 277 276 274 272 270 268 263 257 252 252 259 266 268 266 259 252 248 248 250 253 257 260 261 261 261 262 263 266 267 269 271 273 277 282 287 291 295 298 300 302 305 307 308 308
304 302 302 303 303 303 302 302 302 302 303 303 304 305 306 306 307 308 308 309 308 307 305 303 299 295 291 288 284 283 284 285 287 289 289 288 284 279 273 271 271 270 267 268 271 273 274 274 272 268 263 261 263 265 265 264 258 250 246 245 246 249 251 254 255 255 255 257 259 262 264 266 268 272 277 282 287 292 296 300 304 308 311 312 313 314
301 300 300 300 301 300 300 300 301 302 304 305 306 307 308 309 309 309 309 309 309 308 307 306 303 301 298 296 293 291 289 289 289 290 290 288 284 279 273 270 269 268 267 265 265 267 268 267 266 266 266 268 267 265 262 259 253 247 243 242 243 244 247 249 249 250 251 252 255 257 260 263 266 270 276 282 288 293 299 304 309 312 315 316 318 319
299 298 298 299 300 301 301 301 302 304 306 308 309 311 311 311 311 310 310 309 309 309 308 307 305 303 301 298 296 294 292 292 292 292 291 289 286 282 276 272 270 270 269 267 264 262 261 261 261 261 262 263 264 263 260 253 247 241 235 234 236 240 244 245 246 246 247 249 251 253 256 260 264 268 273 280 286 293 300 306 310 314 317 318 320 321
299 299 300 301 303 304 304 304 306 308 309 310 310 310 311 311 311 310 310 309 309 309 309 308 306 304 301 298 296 294 294 293 293 293 292 292 290 286 281 275 272 270 268 265 261 258 255 255 257 257 257 257 258 258 256 249 241 232 224 223 230 238 243 244 243 243 244 245 247 250 253 256 260 265 271 277 284 293 301 305 309 313 316 318 320 320
302 302 303 304 305 305 306 307 309 310 309 308 307 308 310 310 310 309 308 308 308 308 308 308 307 306 303 301 299 297 295 294 293 293 293 292 291 289 285 280 275 271 267 262 258 254 252 253 254 255 255 255 254 254 250 243 234 225 219 221 228 236 242 240 239 238 239 241 244 246 249 252 256 261 268 274 283 291 298 303 307 311 314 317 319 319
303 302 302 303 304 305 307 308 308 307 307 305 305 306 308 309 308 307 306 305 305 305 306 306 306 304 301 300 299 298 296 295 294 293 291 290 290 289 287 285 282 278 273 265 260 258 257 257 258 258 258 256 252 248 242 233 224 219 219 222 223 223 225 228 230 231 233 236 239 242 245 248 253 259 265 272 281 289 295 301 305 309 312 316 317 318
301 301 301 302 304 305 306 306 305 305 306 306 307 307 307 307 307 305 303 302 301 302 302 302 301 299 296 295 296 297 298 297 295 294 291 288 286 286 286 286 286 284 279 271 268 268 269 268 266 263 261 255 249 241 233 225 218 217 221 224 222 218 217 224 228 228 229 233 236 239 242 246 251 256 262 270 278 286 293 299 303 307 311 314 316 317
300 300 301 302 303 304 304 304 306 308 309 309 307 306 306 306 305 304 302 299 298 298 298 297 296 294 292 293 294 296 298 299 298 296 294 292 289 287 286 285 285 283 279 273 270 269 270 271 270 268 262 252 242 232 224 219 218 221 225 226 224 223 224 230 232 232 232 234 236 239 242 246 250 254 260 268 276 284 292 297 302 306 310 314 317 319
298 298 300 302 303 304 305 307 308 309 308 306 303 302 303 305 305 303 300 297 295 295 294 292 289 285 284 289 293 296 297 299 300 300 299 298 296 294 291 288 286 283 279 274 271 270 269 269 268 266 259 246 234 227 223 221 222 224 225 225 223 223 226 230 234 237 238 239 241 243 246 248 252 256 262 270 277 285 291 295 300 305 310 315 319 322
297 299 302 305 306 307 307 307 306 305 303 300 298 299 302 305 305 303 301 298 295 293 292 290 286 281 281 286 291 294 295 297 298 300 301 301 300 297 295 293 291 288 283 278 275 274 273 272 268 262 253 240 230 227 228 227 227 226 225 223 222 222 225 230 236 240 243 244 246 248 251 254 257 261 266 273 280 285 290 294 299 304 310 315 320 324
300 302 304 305 305 304 302 303 301 298 296 296 298 300 304 306 305 304 301 300 298 295 294 293 291 290 291 292 294 295 295 295 296 298 300 300 300 299 299 298 297 294 289 284 280 278 277 276 272 264 254 243 235 230 231 230 229 227 226 225 224 224 227 234 239 244 247 248 250 252 255 257 258 262 267 273 279 284 289 294 299 304 309 313 317 322
302 302 302 301 300 299 297 298 298 297 297 299 301 303 305 308 310 309 306 305 303 302 301 300 300 299 298 297 296 295 295 295 295 296 297 297 298 299 301 301 300 297 292 287 284 282 279 277 274 269 261 251 242 236 232 230 229 228 227 227 227 228 231 237 243 247 249 251 253 255 256 257 259 262 265 268 273 280 287 293 297 302 306 311 315 321
301 299 297 296 295 295 295 297 298 299 300 302 303 305 307 311 313 313 312 310 309 307 305 303 300 298 295 294 294 294 294 294 294 295 295 297 298 298 298 297 295 293 289 287 283 279 275 273 270 268 264 257 248 239 232 227 225 225 225 226 228 230 233 237 243 247 249 251 252 253 253 254 256 258 259 260 267 276 284 291 296 301 306 312 317 324
297 295 294 293 293 294 296 298 300 301 302 304 306 309 311 314 316 316 315 313 311 308 306 303 299 295 292 292 293 294 295 296 297 298 298 299 298 295 292 290 288 286 283 280 277 271 262 261 266 267 262 258 252 243 233 225 219 216 218 224 229 231 232 235 240 245 247 247 247 247 247 248 250 251 252 252 258 271 282 289 295 301 309 317 324 330